STARLINK-35314, 65837

Orbit data source: Space-Track

STARLINK-35314, 65837 is a payload satellite owned by SpaceX/Seattle (US) in LEO that was launched on Mon, 29 Sep 2025 UTC via an FALCON 9 launch vehicle from the Air Force Western Test Range (AFWTR). Payload-class satellites include a variety of spacecraft equipped with specific instruments for various scientific and technological missions. These include communications satellites like Starlink; space stations such as the ISS; scientific satellites like the Hubble; Earth observation satellites from companies like Planet Labs, Umbra, and HawkEye 360; GPS; miniature CubeSats for education and research; and military/defense satellites.

Loading next visibility...
Identifier
65837, 2025-221Q
Orbit
LEO
Country
Flag of USUS
Related business
Manufacturer
SpaceX/Seattle
Mission
Operational spacecraft
Bus & Motor
STARLINK V2MO, Unknown motor
Mass
575 kg wet, ~530 kg dry
Launch date (UTC)
2025-09-29 (3 weeks ago)
Launch vehicle
FALCON 9
Launch site
Air Force Western Test Range (AFWTR)
Object type
Payload
Rocket body
Debris
Shape & HBR
Unknown shape, 17.7 m
Radar Cross Section
RCS unknown

Expand to show TLE details & history
Last TLE update: 5 hours ago

TLE from 5 hours ago
0 STARLINK-35314
1 65837U 25221Q   25291.25003472 -.01645304  00000-0 -26531-1 0  9996
2 65837  53.1603  32.6155 0001319  73.5704  80.5430 15.55307667  4279
Epoch: 2025-10-18T06:00Z
TLE epoch observation values (Epoch: 2025-10-18T06:00:02.999Z)
Latitude
20.48543°
Longitude
79.45895°
Altitude
401.626 km
Speed
7.673 km/s
True Right ascension
13h 05m 49s
True Declination
20° 22' 01"
Sunlit
Object was in daylight at epoch
Visualization orbit readout
Latitude
Unknown
Longitude
Unknown
Altitude
Unknown
Speed
Unknown
Apparent Right ascension
Unknown
Apparent Declination
Unknown
Sunlit
N/A
Visualization observer readout
Local Sidereal Time
06:03:04
Azimuth
Unknown
Elevation
Unknown
Doppler factor
Unknown
Orbital elements
Apogee altitude
402.412 km
Perigee altitude
400.623 km
Semi-major axis
6,779.655 km
Eccentricity
0.00013
Inclination
53.1603°
RAAN
32.6155°
Arg. of periapsis
73.5704°
True anomaly
80.55791°
Mean anomaly
80.543°
Eccentric anomaly
80.55045°
Mean motion
3.88805 °/min
Orbital period
92.59 mins
BSTAR
-0.026531
Loading maneuver chart data...
Computing Atmospheric mass density...
Loading historical data...
Loading historical data...
Loading historical data...
Loading historical data...
Loading historical data...
Loading historical data...
Loading historical data...

Documentation

Showing up to 5 results
|